Theta_e
302 302 303 303 303 303 303 305 307 308 307 307 308 308 309 309 309 309 309 309 309 309 310 310 310 309 307 308 309 309 309 307 306 306 306 307 306 305 305 306 306 306 306 306 306 307 307 306 308 310 310 311 310 311 310 310 310 310 315 314 314 319 317 318 319 313 312 317 314 309 309 313 315 312 311 312 312 312 312 311 312 312 312 311 311 311 311 310
302 303 303 303 303 303 304 306 307 308 308 308 308 308 309 309 309 309 309 309 309 308 309 309 308 308 308 308 309 309 309 308 307 306 307 307 306 306 306 306 306 306 306 306 306 306 307 307 307 309 310 310 310 310 311 311 309 313 316 312 318 325 316 312 313 310 310 313 311 309 310 310 312 311 310 314 314 312 313 313 312 313 313 312 312 312 311 311
303 303 303 303 302 303 305 306 308 308 308 308 308 308 309 309 309 309 309 309 308 308 308 308 307 308 308 308 309 309 310 310 308 307 308 308 308 308 307 307 307 307 307 307 307 307 307 308 308 309 310 310 310 310 310 311 310 311 311 314 324 322 313 308 309 309 309 310 308 309 309 309 310 310 310 313 313 312 313 313 311 312 313 312 312 312 312 311
303 303 303 303 303 304 305 307 308 308 308 308 308 309 309 309 309 309 310 309 307 307 308 308 308 309 309 309 310 310 311 311 308 307 308 308 309 309 308 308 308 308 308 308 308 308 308 309 310 309 310 310 310 310 310 310 310 309 310 319 319 310 311 311 308 310 309 308 308 309 309 309 310 310 310 311 312 313 311 311 311 311 311 311 311 312 313 312
303 303 303 303 303 304 306 307 307 308 309 309 309 310 310 310 310 310 310 308 306 307 307 308 309 310 310 310 310 310 311 312 309 307 308 309 309 309 309 309 309 309 309 308 308 308 309 309 309 310 309 310 310 310 311 310 310 311 312 314 310 306 310 311 308 310 309 308 308 308 309 311 310 309 310 310 312 313 310 310 311 310 310 310 310 311 312 312
303 303 303 304 305 306 307 308 308 309 310 310 310 310 310 310 310 310 309 308 306 307 307 308 309 310 310 310 311 312 310 309 309 308 309 309 309 309 309 309 309 310 308 308 308 308 309 309 310 310 309 310 311 311 311 312 311 313 314 308 306 307 309 309 309 309 309 308 307 308 310 309 308 310 309 309 311 312 310 311 310 310 310 310 310 310 311 311
304 304 305 306 307 308 308 309 310 310 310 310 310 310 310 310 310 310 309 308 307 307 308 309 310 310 311 311 312 312 309 309 309 309 309 309 310 309 309 309 309 309 308 309 308 309 309 310 311 310 310 311 310 311 311 312 310 313 317 310 307 308 307 309 309 308 309 308 307 308 308 307 308 311 309 308 310 310 310 310 310 310 310 310 310 310 310 311
306 307 308 308 309 309 309 310 310 310 310 310 310 310 310 310 310 310 308 309 309 308 309 310 310 310 310 311 312 312 309 309 309 309 309 309 310 309 309 309 309 309 309 309 309 309 310 310 311 310 311 311 310 312 311 311 312 313 315 310 308 308 308 309 308 308 309 308 308 307 307 308 308 309 307 308 310 310 309 309 309 309 309 309 309 309 310 310
308 308 309 308 309 309 310 310 310 310 310 310 310 310 310 310 310 309 308 309 309 309 310 310 311 311 310 310 311 312 310 309 309 309 310 310 310 310 309 309 309 309 309 310 309 309 310 310 311 311 312 311 311 313 310 310 313 311 311 309 308 309 309 309 309 309 308 308 308 307 307 307 307 307 307 308 310 310 309 309 309 309 308 309 309 309 309 309
308 308 308 309 309 310 310 310 310 310 310 310 310 310 310 311 310 309 309 309 308 309 310 310 311 312 311 310 311 312 310 310 310 310 310 310 310 310 310 309 309 309 309 309 309 308 309 310 311 311 312 311 311 312 310 310 311 310 309 309 309 309 308 309 309 309 308 308 307 308 309 308 306 307 308 310 309 309 309 309 309 309 309 309 309 309 309 309
308 308 308 309 310 310 310 310 310 310 310 310 310 310 310 310 309 308 308 308 309 310 310 311 312 312 311 310 311 311 310 310 310 310 310 310 311 311 310 310 310 310 309 309 309 309 309 309 310 310 311 312 311 310 309 309 310 310 309 311 312 308 308 308 308 308 307 308 308 307 309 307 306 308 310 310 310 309 309 309 310 309 309 309 309 309 309 309
308 309 309 310 310 310 310 310 310 310 310 310 310 310 310 310 309 308 308 309 310 311 311 312 312 311 311 311 310 310 310 309 310 309 309 310 310 311 310 310 311 310 310 309 310 310 309 310 310 310 311 311 312 310 310 309 310 310 309 315 318 313 312 308 306 307 306 309 308 306 311 311 309 310 310 309 309 309 309 308 309 308 308 308 308 308 308 308
309 309 310 311 310 310 310 310 310 310 310 310 310 310 310 310 310 309 310 310 311 311 311 313 313 312 311 311 310 310 310 309 309 309 309 310 310 310 310 310 311 311 311 310 311 311 310 310 310 311 311 311 311 310 310 308 308 310 308 313 319 317 316 308 305 307 306 308 308 307 313 314 311 310 308 308 308 308 307 307 307 308 308 308 308 308 308 308
309 310 311 311 310 310 310 310 310 310 310 310 310 310 310 310 311 311 311 311 312 312 313 313 313 312 310 310 310 310 310 310 309 309 309 310 310 310 310 310 311 311 311 311 311 311 311 311 311 311 312 310 309 309 313 312 312 313 310 314 315 314 316 310 304 306 308 309 308 308 312 314 311 309 308 308 307 306 305 306 307 307 307 308 308 308 309 309
310 311 310 310 310 310 310 310 310 310 311 311 310 310 311 311 311 311 311 312 313 313 313 313 313 312 310 310 310 310 310 310 309 308 309 310 311 311 311 311 311 311 312 311 312 311 311 312 311 311 310 309 308 313 319 319 319 317 313 318 316 312 316 312 304 304 308 309 307 308 313 315 311 309 309 307 306 306 305 306 306 307 308 309 309 309 309 309
311 311 310 310 310 310 310 310 310 311 311 311 311 311 311 311 311 311 312 312 312 312 312 312 312 312 312 310 310 311 310 310 309 308 309 310 311 312 312 312 312 312 312 312 312 311 311 312 312 310 308 310 310 315 326 324 322 318 312 314 315 313 314 312 308 304 305 308 308 309 311 313 311 309 308 306 306 306 305 305 305 306 308 308 308 307 307 308
311 311 311 311 311 310 310 311 310 311 311 311 311 311 311 311 311 311 311 311 312 312 311 311 311 312 311 310 310 310 310 309 309 309 309 310 311 312 312 313 313 312 312 313 313 311 312 312 312 309 307 309 308 314 327 322 317 318 315 314 314 314 313 313 312 306 304 307 309 310 310 311 310 307 306 306 306 305 304 304 304 305 306 305 306 306 306 306
311 311 311 311 311 311 311 311 311 311 310 310 310 310 310 311 311 311 311 311 311 312 312 311 311 313 311 310 310 309 309 309 309 310 310 310 311 312 312 314 313 311 312 313 312 311 311 309 310 311 308 309 309 312 318 313 310 314 314 314 314 313 312 312 312 308 306 308 308 310 311 311 309 306 304 305 306 304 303 304 304 304 305 305 305 305 305 305
311 311 311 311 311 311 311 311 311 311 311 311 311 311 311 310 310 310 310 311 311 312 312 310 311 312 311 310 310 309 308 308 308 311 311 311 312 311 313 314 312 311 312 313 312 310 309 309 312 315 313 311 311 310 311 309 309 311 311 312 313 313 312 311 311 308 305 308 311 310 311 309 309 309 306 305 305 304 304 304 304 305 305 305 305 305 305 305
310 311 311 311 311 311 310 311 312 313 313 313 312 313 312 312 313 311 310 310 309 309 310 309 309 309 309 310 310 309 308 307 308 309 311 312 311 311 312 312 311 312 313 314 314 309 307 312 315 314 313 312 310 308 308 308 308 310 311 312 313 311 310 308 309 308 304 308 313 310 309 309 311 313 307 303 305 304 304 304 304 305 305 305 305 305 305 305
310 310 310 311 310 311 311 312 313 313 313 312 313 313 312 313 315 313 310 310 310 309 309 309 310 309 309 310 309 308 308 307 307 308 309 311 311 311 310 312 313 312 310 308 310 309 308 312 313 312 311 309 308 308 309 310 310 311 311 313 313 310 308 307 307 307 303 306 313 311 309 312 313 315 307 303 306 305 303 304 304 305 305 305 304 304 305 305
310 310 310 310 310 311 311 312 312 311 311 311 311 311 311 312 314 313 311 311 310 310 310 309 310 310 309 310 310 309 308 307 308 307 309 309 311 312 310 311 316 314 310 310 313 315 313 312 312 309 306 305 308 310 311 311 311 311 310 312 312 308 308 310 310 309 304 305 313 312 309 312 313 313 309 305 305 305 304 304 304 304 305 305 305 304 304 305
310 310 310 310 311 311 312 312 311 310 311 311 311 310 310 310 311 312 312 311 310 310 310 310 309 309 310 310 310 309 307 307 308 306 308 309 310 311 310 311 317 317 315 316 316 315 312 312 309 304 303 308 312 313 311 311 311 309 309 310 310 308 307 311 312 308 304 303 309 310 309 312 312 314 315 308 303 304 305 305 305 304 305 305 305 304 304 304
310 310 310 311 311 311 311 311 310 311 311 311 311 311 311 311 310 311 311 311 310 310 310 310 309 309 309 309 309 310 309 307 307 306 307 309 309 310 309 309 315 317 313 314 316 314 312 310 306 304 309 312 313 314 311 310 312 311 310 308 307 308 306 308 308 306 306 306 305 308 311 314 313 314 317 311 305 305 305 305 306 305 305 305 305 305 304 304
310 310 311 311 311 311 311 310 310 311 310 311 312 311 311 310 310 310 312 313 311 308 310 310 308 309 308 309 310 310 309 308 307 306 306 308 309 310 309 307 312 315 312 312 315 316 313 306 305 311 315 313 311 312 309 308 313 314 313 309 305 307 306 306 306 306 312 313 306 306 309 313 314 311 315 317 311 309 306 304 306 305 305 305 305 305 304 304
310 311 311 311 311 311 310 310 311 310 311 312 311 311 311 310 311 311 315 323 317 307 309 310 308 309 309 309 309 309 311 311 307 305 306 307 308 309 310 307 308 311 310 309 309 310 311 306 306 311 312 311 310 308 306 307 311 311 309 308 305 306 306 307 307 307 311 312 305 306 308 308 310 308 312 316 313 312 310 308 306 304 305 306 305 305 304 304
311 311 310 311 311 310 310 310 311 310 311 311 309 311 310 310 311 309 316 328 320 307 308 311 309 309 309 308 309 311 312 310 308 305 304 307 307 307 311 311 309 308 304 308 311 307 309 312 312 312 310 311 310 307 306 306 309 310 307 306 306 306 307 306 307 308 309 309 308 310 309 307 312 311 309 309 311 314 314 313 309 305 305 306 304 304 304 304
311 311 310 311 310 310 311 311 311 311 310 309 309 309 310 311 310 311 320 321 312 307 308 309 308 308 308 307 307 309 309 307 307 306 303 305 306 305 308 309 310 308 301 309 317 306 306 313 312 312 311 309 308 306 306 305 309 314 310 305 305 305 307 306 308 311 308 307 310 313 308 306 311 310 306 307 310 314 314 314 312 305 303 305 304 304 304 303
311 311 311 311 310 310 311 311 311 310 309 309 308 309 311 311 309 317 327 315 306 309 309 308 309 307 306 308 308 306 306 307 306 306 304 304 306 305 305 304 306 307 301 308 318 308 305 308 305 307 309 308 309 307 306 308 310 310 306 304 304 303 305 306 308 313 310 308 311 312 306 305 307 306 306 307 308 310 310 310 308 303 302 304 304 303 302 301
311 311 311 310 311 310 310 312 311 309 309 308 309 310 310 312 318 325 324 311 306 309 307 307 308 305 306 311 311 306 305 306 304 305 304 303 304 304 304 303 303 307 305 306 313 307 303 305 304 306 307 305 308 306 303 306 306 305 306 306 306 304 304 307 307 307 308 310 311 309 306 305 306 308 310 308 306 305 304 305 303 300 301 301 300 300 298 297
309 310 311 311 311 310 310 311 310 310 309 308 310 311 308 314 326 327 313 306 307 308 308 309 306 306 309 309 308 306 306 305 302 305 307 304 304 303 304 305 304 310 313 309 311 307 305 308 306 305 305 303 307 306 303 302 301 304 308 307 305 305 306 312 313 307 304 306 308 308 307 305 305 310 311 309 307 302 300 301 300 298 297 296 296 296 296 296
308 309 309 310 310 310 309 309 309 308 308 310 311 311 314 320 321 315 310 308 306 306 307 307 305 307 310 307 306 306 307 307 303 304 306 306 305 302 303 304 303 309 312 308 308 310 311 310 304 303 304 303 307 307 306 308 306 305 309 307 307 309 308 310 311 308 306 305 304 306 305 304 305 309 309 307 303 299 297 297 296 295 295 294 295 295 295 295
307 306 307 308 308 308 308 307 308 307 309 311 309 312 322 325 313 305 310 312 305 303 303 306 307 307 308 309 307 305 305 305 304 303 302 306 309 305 302 301 301 304 306 305 306 308 311 310 305 306 305 302 305 305 305 309 308 307 307 307 309 309 305 306 307 305 304 303 302 302 303 305 307 305 304 301 298 296 295 295 295 295 294 294 295 295 295 295
306 306 307 306 306 307 307 308 308 308 311 310 312 321 323 315 308 304 309 312 306 303 303 304 307 307 306 308 306 305 306 304 303 305 306 308 311 310 306 303 301 303 305 306 304 303 306 307 307 306 303 303 306 305 303 306 306 307 306 305 308 308 304 305 308 306 305 305 303 301 303 308 307 301 299 297 296 296 295 295 295 295 294 294 294 294 294 294
306 306 306 306 308 308 308 309 309 309 311 308 315 326 319 308 307 307 308 309 306 306 306 302 306 312 312 310 306 303 304 305 304 306 310 309 307 307 305 304 302 302 305 306 302 302 304 305 306 303 300 303 307 303 302 305 306 305 303 306 309 309 306 306 308 305 303 305 306 306 307 309 305 300 297 296 296 295 295 295 294 294 294 294 294 294 294 294
307 307 308 309 309 310 310 311 310 310 310 310 315 317 311 305 306 306 305 304 304 305 306 305 307 315 315 313 313 306 302 303 305 306 308 306 304 304 303 303 301 300 304 304 302 303 304 304 306 303 301 303 304 302 302 304 306 305 304 306 306 302 304 307 307 304 301 303 305 306 306 304 303 301 297 295 296 295 295 294 294 294 294 294 293 293 293 293
309 309 309 309 310 310 311 309 310 311 308 310 315 311 305 303 302 303 303 302 301 301 307 310 306 308 310 310 314 311 304 304 305 305 307 305 304 303 303 302 299 298 300 300 302 302 301 305 308 304 305 305 299 300 302 299 303 308 308 307 303 301 305 307 306 305 305 304 303 304 303 302 303 302 297 295 295 294 294 294 294 293 293 293 293 293 293 293
309 309 308 308 309 309 310 308 309 311 307 310 314 310 304 303 301 301 301 300 300 302 309 311 303 302 306 306 308 308 306 307 308 307 306 305 303 302 303 303 299 298 298 298 302 302 299 305 308 303 304 304 297 299 304 302 301 303 304 304 302 304 307 305 303 304 304 303 303 305 304 302 301 299 296 295 295 294 293 293 293 293 293 292 292 292 292 292
309 309 307 308 308 307 309 309 307 308 309 312 314 310 305 304 302 300 302 301 300 304 308 306 302 303 305 304 305 306 306 306 306 306 305 303 302 301 301 301 300 299 298 298 303 303 299 303 306 303 303 302 300 302 304 306 304 302 302 304 304 303 305 304 303 304 304 302 303 305 304 302 299 296 295 294 294 293 293 292 292 293 292 292 292 292 291 291
310 309 308 307 308 307 307 308 307 310 311 309 310 308 303 304 303 301 302 302 301 302 304 304 303 304 305 304 304 304 305 306 305 306 305 302 303 302 300 299 300 300 298 299 302 302 301 302 303 305 304 302 302 303 302 302 304 305 306 306 304 304 306 304 301 302 303 302 302 303 303 302 297 295 294 293 293 293 292 292 292 292 292 292 292 291 291 291
310 310 308 306 309 308 307 309 307 307 310 308 307 306 303 303 303 302 302 303 303 301 302 305 304 304 305 305 304 303 305 308 307 306 304 302 303 303 300 298 299 299 299 302 302 300 302 302 302 305 304 303 303 302 300 300 302 304 306 305 305 304 304 303 301 302 303 302 302 302 302 301 297 295 294 293 292 292 292 292 292 292 292 292 291 291 291 291
309 311 309 306 309 308 308 310 302 301 310 309 305 304 304 303 302 301 301 302 302 301 302 304 304 304 304 304 305 305 305 307 307 305 304 302 303 303 300 297 297 298 300 302 301 298 299 301 302 305 304 303 303 299 295 297 300 302 303 302 304 303 302 302 302 302 302 300 300 300 301 300 295 294 294 293 292 292 291 291 291 291 292 291 291 291 291 290
307 308 308 308 309 306 308 310 303 303 307 304 301 302 302 302 301 302 302 301 302 302 303 304 303 303 303 302 304 306 304 304 305 305 304 304 303 301 299 297 297 298 299 301 300 297 298 301 302 305 303 301 302 299 295 296 300 302 302 301 302 301 299 300 300 299 299 300 300 300 301 300 295 293 293 293 292 291 291 291 291 291 291 291 291 291 290 290
305 306 306 309 309 306 310 312 308 308 307 303 302 303 302 301 302 304 303 302 303 303 304 305 303 302 302 301 304 306 303 302 303 302 302 304 302 299 297 297 297 298 299 299 299 297 299 302 302 303 303 300 301 301 299 299 300 300 301 300 299 298 297 298 297 297 298 300 299 298 300 300 297 295 294 292 292 292 292 292 291 291 291 291 291 291 290 289
306 307 305 306 308 307 308 307 307 312 312 309 308 306 304 303 303 304 303 301 302 301 302 304 302 302 302 301 304 307 304 302 303 302 301 303 302 298 297 297 297 297 298 297 297 297 299 301 301 303 302 299 300 301 300 300 300 299 299 297 296 296 295 296 296 296 298 299 297 297 298 298 297 296 293 291 291 292 291 291 291 290 290 290 290 290 289 288
308 309 307 307 306 305 304 302 303 310 313 314 311 304 304 305 302 302 303 302 302 301 302 302 300 302 304 303 307 311 307 302 302 304 305 306 304 298 296 297 297 296 297 296 296 298 300 301 301 305 304 301 301 301 300 300 299 299 300 296 294 295 294 294 294 294 296 296 296 297 297 297 296 295 292 291 291 291 290 290 290 289 289 289 289 289 288 288
310 309 308 308 306 305 307 304 303 305 306 310 309 303 304 307 303 302 303 302 302 302 301 301 299 302 306 306 307 309 307 304 301 302 304 305 303 297 295 296 297 297 297 295 296 298 301 302 302 303 304 303 302 301 299 299 298 298 297 295 294 294 293 293 293 293 295 295 296 296 296 296 296 293 291 290 290 289 289 290 290 289 289 289 289 288 287 287
310 307 304 306 306 307 309 306 302 301 301 305 306 303 307 310 305 304 304 302 302 301 301 303 302 303 304 303 304 305 305 306 305 304 304 302 301 301 300 297 296 297 297 296 296 296 300 303 300 299 303 303 300 299 298 298 297 295 294 293 293 293 293 292 292 292 293 294 294 294 295 296 294 292 290 290 289 289 289 289 289 288 288 288 288 287 287 287
307 306 303 304 305 303 304 303 301 301 300 303 306 305 309 311 306 303 301 303 305 302 300 305 305 303 302 300 302 304 304 305 305 305 304 302 301 303 304 300 297 296 296 297 296 294 297 305 301 297 301 300 299 299 298 298 297 294 292 292 292 292 292 292 292 292 292 293 293 293 294 295 293 291 289 289 289 289 289 288 288 288 288 287 287 287 287 287
306 306 304 304 303 301 302 301 301 305 305 304 306 305 305 308 306 302 299 302 307 305 301 303 305 303 300 301 304 305 303 302 303 302 301 301 301 302 303 300 298 297 297 299 297 294 297 303 301 298 300 300 299 300 298 298 298 293 291 292 291 292 292 292 292 292 291 292 292 293 294 293 291 290 289 289 288 288 287 287 287 287 287 287 287 287 287 287
306 306 305 306 304 300 301 299 299 309 313 307 306 304 304 306 305 302 301 301 303 304 302 302 303 302 299 301 305 305 301 300 301 300 299 299 300 300 299 297 297 299 301 300 298 298 300 302 301 300 301 300 299 299 298 297 296 293 291 291 291 291 291 291 291 291 291 291 292 293 292 291 289 289 288 288 287 287 287 287 287 287 287 287 287 287 287 287
307 306 305 307 306 299 298 298 300 308 309 303 302 303 302 304 302 300 302 302 300 302 302 300 300 303 305 305 303 302 300 298 299 299 298 298 297 297 296 296 295 297 300 300 298 297 298 300 301 301 300 300 299 298 297 297 297 296 292 290 291 291 290 291 291 291 291 291 292 291 290 288 288 288 287 287 287 287 286 286 287 287 286 286 287 287 286 286
Wind_Speed
6 7 9 7 5 4 5 5 5 5 5 4 3 2 1 2 5 6 8 9 9 10 8 5 3 2 2 3 4 4 5 7 7 6 6 8 8 6 5 5 4 5 6 6 8 8 7 6 6 6 5 4 3 2 2 2 2 3 3 2 3 3 4 5 6 6 3 4 5 3 6 9 6 7 10 10 11 18 19 21 23 23 27 28 26 22 17 12
8 9 9 6 5 5 5 5 6 5 5 4 2 1 2 4 5 6 6 7 8 7 6 5 5 5 4 4 4 5 6 7 8 8 10 11 10 8 7 6 5 6 6 7 7 7 6 4 4 4 5 3 2 2 1 2 2 2 3 1 4 5 5 5 5 5 3 4 6 8 8 10 10 6 4 6 8 10 12 19 22 24 30 31 31 30 27 21
10 10 8 6 5 6 6 6 6 5 4 3 1 1 3 4 5 4 5 5 5 5 7 8 7 5 4 4 5 6 6 5 8 10 11 12 12 10 8 6 6 6 7 7 7 6 6 5 4 4 5 3 3 2 2 1 1 1 2 2 6 6 4 5 7 7 6 7 7 9 7 9 14 10 4 5 8 7 9 17 16 22 31 31 31 32 32 30
10 9 7 6 6 6 6 6 6 4 3 2 1 2 3 5 4 3 3 3 4 6 8 7 5 4 4 5 6 8 7 3 7 11 11 12 12 11 9 6 6 6 7 6 5 5 5 6 6 6 5 3 3 0 2 0 1 1 3 4 5 4 3 6 8 9 9 7 7 7 5 7 14 12 9 6 6 7 14 24 23 25 31 28 28 29 32 34
9 7 7 7 7 7 6 6 5 4 3 3 3 3 4 5 3 2 2 2 4 7 6 5 4 4 5 7 8 10 7 1 7 10 10 12 11 11 9 6 5 6 7 6 5 4 4 6 6 6 4 2 2 1 1 0 1 1 4 6 5 3 2 7 5 7 9 8 8 6 4 7 9 9 14 10 6 12 21 28 26 25 27 25 24 26 29 34
8 8 8 8 8 7 6 6 5 5 4 4 4 5 5 5 1 2 2 3 5 5 3 4 4 5 6 7 8 10 7 1 6 9 9 11 10 11 9 6 5 6 6 6 5 4 4 6 5 3 2 1 0 1 1 1 0 2 4 4 4 3 4 7 6 7 9 9 8 5 6 9 6 7 13 14 19 27 33 33 29 29 29 25 22 24 28 31
9 9 9 9 8 7 6 6 6 6 6 6 5 5 5 4 0 2 2 3 3 2 3 4 5 7 7 8 7 8 8 4 6 7 7 10 10 11 10 7 5 4 5 6 5 4 4 5 4 2 1 2 1 2 3 5 2 2 4 5 5 5 7 9 10 11 11 10 11 9 9 9 8 7 7 15 31 36 35 34 33 33 32 30 27 27 29 29
11 10 10 9 8 7 7 7 7 7 7 6 6 6 5 4 1 2 2 3 3 2 3 5 6 8 8 8 5 6 10 8 7 6 7 9 11 12 11 8 6 5 6 6 6 4 4 5 4 4 2 1 1 0 4 7 2 3 3 5 5 7 9 12 14 14 14 13 13 11 11 14 14 9 8 23 37 35 32 32 28 25 25 28 28 29 30 31
11 10 9 8 7 8 8 9 8 8 7 7 7 7 6 4 2 3 4 6 6 4 4 5 6 8 9 7 3 5 9 9 7 7 7 8 10 12 10 9 7 6 6 6 7 5 5 6 5 5 3 1 1 1 3 4 3 1 3 7 8 10 13 14 14 13 12 11 10 8 10 15 15 8 11 29 32 26 26 26 22 21 23 24 24 25 27 31
10 9 8 7 8 9 9 9 9 8 8 7 6 7 7 5 4 5 7 7 4 4 4 5 7 9 10 7 5 5 8 9 8 9 9 10 10 10 9 8 7 7 7 8 8 6 5 5 6 7 4 2 1 2 3 1 3 4 6 9 9 13 13 10 12 13 10 10 8 7 10 15 12 1 8 26 24 19 23 24 25 27 27 27 27 26 25 27
8 7 7 8 9 10 9 9 8 7 7 6 6 6 6 5 6 6 6 3 3 4 4 5 7 7 8 12 12 8 8 10 10 11 12 12 10 8 7 8 8 9 11 11 11 9 7 5 7 6 2 3 3 2 2 2 4 6 8 9 9 11 8 8 12 11 6 5 5 6 11 13 6 3 11 23 23 21 26 29 30 30 31 31 30 29 27 25
7 7 8 9 10 10 9 8 7 7 6 6 6 6 6 6 5 5 3 2 2 3 4 5 7 5 4 11 15 10 10 12 13 15 14 12 10 8 7 7 8 10 11 12 12 12 9 7 8 6 3 4 4 2 2 4 5 5 6 5 8 10 4 7 12 7 4 2 5 6 9 10 1 7 17 21 21 23 28 30 31 31 30 29 26 25 23 22
7 9 10 11 10 9 8 7 7 7 6 6 7 8 8 7 5 4 2 1 2 3 4 5 7 5 3 6 12 13 12 14 16 16 13 10 7 7 7 7 6 9 10 10 12 11 12 11 9 8 10 7 2 1 4 5 5 4 4 3 5 9 3 6 12 8 6 2 5 6 4 9 5 12 17 14 18 25 29 30 29 28 26 23 20 19 19 18
9 11 11 11 9 8 7 7 7 7 6 6 7 7 6 5 5 4 3 3 4 4 4 6 6 4 4 6 11 14 13 13 16 17 15 11 6 4 5 6 4 6 7 9 10 10 12 12 9 8 11 11 4 2 4 5 4 3 3 3 3 5 4 9 11 8 7 3 4 4 2 8 10 18 21 20 26 26 24 26 24 22 19 18 17 17 19 19
11 11 11 10 8 7 7 7 7 6 6 6 5 4 4 4 4 3 4 5 6 6 5 5 6 4 5 7 9 12 12 13 17 20 19 13 10 7 5 4 3 5 5 7 8 9 11 9 9 9 8 13 9 2 3 5 4 4 4 4 3 2 5 10 8 5 5 5 4 3 3 8 9 18 28 31 31 22 17 18 18 19 21 23 23 23 24 24
11 10 10 8 7 6 6 7 6 6 6 5 3 2 3 2 2 3 4 5 7 8 7 6 6 6 6 6 8 12 15 16 21 22 19 13 11 10 9 6 5 7 5 5 7 7 9 7 8 10 9 11 9 4 4 5 4 4 4 3 5 3 5 8 5 8 8 4 5 3 2 7 7 18 32 31 24 16 13 15 18 22 25 27 27 27 27 27
11 10 8 7 6 6 6 6 6 5 5 4 5 5 4 3 1 2 2 3 6 7 10 8 4 4 8 9 10 16 18 19 23 21 16 12 10 10 10 6 6 8 4 4 8 8 7 7 5 5 8 7 3 3 5 5 5 4 4 2 4 4 3 6 5 9 11 5 5 3 3 8 10 17 28 23 15 11 12 14 17 21 24 26 28 28 28 28
10 9 7 5 4 4 4 5 5 6 7 8 11 13 14 12 9 4 1 3 4 4 7 11 6 3 4 14 15 16 18 21 24 20 13 10 8 10 10 7 8 6 3 6 9 11 7 6 4 1 5 6 5 6 5 2 3 4 4 3 4 4 3 5 5 6 11 8 6 5 3 10 12 13 19 16 10 9 11 13 16 19 22 24 26 28 28 28
9 8 6 4 3 3 3 4 5 7 8 9 11 13 15 18 19 16 14 14 12 6 3 10 12 4 1 14 18 14 15 21 24 19 13 10 7 10 9 8 10 8 8 5 8 11 7 4 6 4 5 6 5 3 1 3 4 5 4 3 5 6 5 7 7 3 7 8 7 4 4 10 12 11 12 12 8 8 11 14 16 17 20 22 23 24 24 25
7 7 5 4 3 2 2 5 6 6 6 6 6 6 7 9 12 14 19 24 22 14 9 11 14 8 4 13 19 15 13 19 25 22 17 13 6 8 11 7 11 16 8 1 2 7 7 6 5 2 5 7 6 3 5 4 2 3 3 3 5 5 6 8 6 5 6 6 5 4 6 9 9 9 10 12 9 7 11 13 13 14 16 18 19 20 19 20
6 6 4 3 3 3 4 6 7 7 8 8 7 8 7 5 4 5 10 17 17 16 17 18 17 15 12 13 18 18 14 18 27 26 20 16 8 6 12 9 9 12 6 2 1 4 7 8 4 6 7 7 5 3 4 3 0 0 2 4 5 3 7 9 4 3 6 5 4 5 9 11 9 7 9 10 8 5 8 8 8 9 11 13 15 16 16 17
5 4 4 4 4 5 7 9 10 11 12 11 11 12 12 9 8 7 7 10 13 16 16 18 20 19 16 12 14 19 21 21 26 29 24 19 14 9 10 10 7 4 5 3 2 5 7 5 6 7 5 4 2 4 3 2 1 1 1 2 4 3 5 9 4 3 6 2 5 6 8 11 9 7 9 7 5 5 6 5 5 5 5 8 11 13 15 17
5 5 5 5 7 10 11 12 13 13 12 11 12 13 13 11 9 8 7 7 10 15 15 17 20 22 18 12 11 16 22 20 20 28 29 19 15 12 9 8 6 3 6 6 5 4 5 2 6 4 5 4 3 5 6 4 3 1 1 2 5 4 3 5 4 8 9 1 4 6 5 8 7 6 7 6 5 6 5 4 3 2 2 3 7 11 15 18
6 6 7 9 11 12 13 13 12 10 8 8 10 11 10 11 9 6 5 4 5 11 15 15 17 21 19 15 12 10 15 18 19 26 28 21 14 9 6 5 5 4 5 4 8 7 2 4 6 5 6 5 2 6 7 6 5 3 1 1 5 6 2 4 6 10 9 2 2 6 5 4 4 6 6 5 5 5 5 5 3 1 2 2 6 11 14 17
7 6 8 11 13 13 13 12 9 6 5 6 7 8 8 9 8 3 3 4 2 9 13 12 13 18 19 17 12 5 7 14 21 26 23 20 15 5 4 5 5 5 3 1 6 5 0 4 5 5 6 7 5 4 4 3 5 5 3 3 4 6 5 6 7 7 6 4 4 5 5 5 4 5 7 5 7 7 7 7 6 3 3 3 7 12 14 16
7 7 9 11 13 13 11 8 5 3 4 6 7 8 7 6 6 4 2 4 3 7 11 10 9 13 17 19 14 3 4 8 15 24 21 15 14 7 3 5 4 4 1 2 2 2 1 4 4 4 3 6 6 3 1 3 4 5 2 3 2 4 6 5 5 4 3 4 5 5 4 5 6 6 7 5 7 10 9 8 8 6 4 5 7 12 16 17
8 8 10 11 13 12 8 4 2 1 4 5 7 8 6 5 4 2 1 5 4 5 7 8 7 10 12 18 18 4 1 9 10 21 23 13 11 10 6 3 3 4 1 2 3 1 2 6 6 5 5 6 6 4 2 3 4 4 3 1 5 7 5 3 1 1 1 3 5 4 3 2 5 6 6 5 7 9 8 8 10 8 7 6 7 11 16 18
9 9 10 11 12 10 4 1 1 1 5 6 8 7 4 4 1 2 4 5 4 5 5 6 6 10 10 12 19 12 4 10 7 14 23 14 9 11 8 2 3 0 2 4 2 2 2 4 5 4 5 5 3 4 3 3 1 6 5 4 6 5 3 3 4 2 1 2 4 5 2 1 5 7 5 5 4 7 8 8 9 10 11 9 7 11 19 22
10 10 11 10 10 8 3 0 0 3 6 7 7 5 3 3 1 2 6 3 3 4 4 7 6 11 14 9 15 16 9 10 7 10 20 19 11 7 6 3 3 3 4 6 4 4 1 0 1 2 4 3 4 6 3 5 2 8 6 5 2 2 2 2 4 2 2 4 2 5 3 3 5 8 6 5 4 6 8 8 8 13 16 16 12 18 29 33
11 11 11 10 10 9 6 4 3 5 8 8 6 3 2 3 3 5 6 0 2 4 6 8 6 11 17 9 10 15 9 7 10 13 17 21 20 15 7 3 5 4 4 7 3 2 2 0 1 2 0 3 5 6 2 5 5 8 6 5 3 4 3 3 3 3 4 4 5 5 1 3 3 7 4 2 4 6 7 9 11 17 26 30 27 32 41 41
12 11 10 9 9 8 6 5 5 6 7 6 4 2 1 3 4 7 3 2 1 5 6 6 5 8 11 5 4 11 7 6 13 13 12 14 19 20 11 4 7 6 5 7 5 5 4 1 1 2 2 3 4 5 2 2 3 5 5 5 5 5 4 4 5 4 4 5 6 4 1 1 2 6 5 4 6 10 10 10 12 17 26 34 37 40 42 40
12 11 10 8 7 6 5 5 5 6 6 4 2 1 1 4 5 3 1 4 3 4 3 2 4 5 5 3 3 6 4 5 9 8 5 5 7 10 9 4 4 5 5 5 6 6 3 1 3 3 1 2 3 5 5 4 5 6 5 6 6 5 6 5 5 3 2 6 4 2 2 2 4 8 6 7 11 15 15 14 15 18 24 31 35 37 37 37
11 10 8 7 5 5 5 6 5 4 3 1 0 1 5 6 3 1 3 3 2 3 2 2 4 4 3 4 4 5 2 3 6 5 2 2 5 4 5 6 4 3 3 3 4 6 5 4 6 5 1 2 4 4 5 5 6 6 3 4 4 3 5 5 5 3 5 7 3 1 1 3 5 4 4 8 12 18 23 25 26 27 28 30 31 34 35 37
10 8 6 5 4 5 5 5 5 3 3 2 1 4 8 6 1 1 2 3 1 3 2 1 4 5 3 3 3 4 2 2 4 5 5 4 5 4 5 8 8 4 2 2 2 4 5 5 5 3 3 5 4 3 1 1 2 3 2 3 3 2 0 3 4 3 6 8 5 3 1 2 4 4 7 9 16 23 26 27 30 32 33 33 35 37 37 37
8 6 4 3 2 3 3 3 3 2 2 3 5 7 7 3 2 0 1 4 2 3 3 2 3 4 4 3 3 2 1 2 3 5 5 4 3 3 3 5 7 4 3 3 1 1 3 5 7 3 4 2 2 1 1 2 2 3 2 3 2 1 3 2 4 5 3 5 4 3 2 4 4 3 8 11 16 21 22 24 28 30 31 33 35 35 35 36
8 6 5 3 1 0 1 4 4 4 3 7 9 7 3 3 2 2 2 2 1 2 4 4 4 4 5 5 4 5 2 2 4 5 4 3 2 2 2 2 4 5 3 2 1 1 3 6 7 5 3 1 2 1 1 2 1 1 2 1 2 3 5 1 4 2 2 2 4 2 3 5 3 3 10 15 15 16 18 21 24 25 27 29 30 31 33 35
9 8 8 7 6 4 4 6 1 7 7 11 10 3 2 2 2 3 1 1 1 0 3 3 3 3 3 3 4 7 6 3 4 5 3 2 2 2 3 1 2 4 1 2 1 1 1 5 7 4 3 3 2 2 1 2 1 2 2 3 2 1 4 3 2 4 3 3 4 3 6 7 4 3 9 16 17 16 16 17 20 23 26 27 28 31 33 35
11 11 14 14 13 8 5 10 9 10 15 16 7 3 2 1 2 2 1 1 1 2 5 3 2 2 1 2 4 7 6 5 5 4 2 3 2 1 2 2 1 5 4 1 1 0 2 3 7 1 3 8 5 3 3 2 1 2 1 2 1 1 2 2 1 3 4 5 5 5 8 6 1 3 7 12 13 13 14 14 16 20 24 27 30 33 36 37
8 9 14 15 14 13 8 5 6 10 15 11 2 2 1 1 0 1 2 3 1 3 5 2 2 3 2 1 2 5 4 3 3 4 2 2 3 1 3 1 2 6 7 2 2 1 1 1 5 4 4 7 5 4 4 5 4 3 2 2 2 2 4 2 1 1 2 5 5 5 6 3 1 2 5 7 9 11 12 13 14 18 25 29 30 33 36 38
4 5 11 11 9 13 9 6 13 16 12 4 3 2 1 0 2 3 4 4 2 3 3 1 2 3 2 1 1 1 2 1 1 2 1 1 2 1 2 1 2 7 7 2 2 1 1 1 3 6 6 5 4 2 1 2 3 3 3 4 4 2 1 2 2 1 1 4 5 4 5 3 2 0 3 6 8 10 12 13 14 20 27 30 30 30 33 36
5 5 9 11 8 5 6 12 16 13 6 2 3 2 1 2 3 4 5 5 4 4 2 3 3 1 0 2 1 1 1 2 1 0 1 1 1 2 2 2 1 5 5 2 3 2 1 1 2 5 6 4 5 5 3 4 4 2 1 2 3 3 2 3 5 2 1 3 4 5 8 5 2 2 1 4 7 10 17 18 18 23 28 29 30 30 31 34
9 4 6 13 10 3 9 13 11 6 4 4 4 3 3 2 3 5 6 5 4 4 3 3 2 1 2 1 1 1 1 2 1 1 1 2 1 1 1 4 4 3 2 1 2 2 0 2 0 4 4 6 10 5 1 2 3 4 2 1 1 0 2 1 6 5 3 4 2 3 7 5 3 4 3 5 12 16 22 23 21 24 28 29 31 33 34 37
15 10 6 8 6 6 12 10 7 5 5 3 2 5 5 3 4 5 5 5 3 2 3 2 0 1 1 1 1 1 1 1 2 1 1 3 2 2 1 4 5 2 2 1 1 2 1 2 2 5 4 6 9 5 2 2 2 1 2 2 2 3 4 4 6 3 4 7 4 3 6 4 3 6 3 12 24 28 30 32 30 31 33 35 37 37 38 42
21 21 18 10 2 5 9 5 2 3 3 2 5 6 5 6 6 5 3 4 3 1 2 1 1 2 1 1 1 1 1 1 2 1 1 2 2 2 0 4 5 2 3 1 1 4 3 0 2 4 6 8 8 7 5 3 2 2 2 4 6 7 8 5 4 3 1 6 6 5 8 6 2 3 7 22 30 30 34 39 40 38 39 41 42 39 41 46
14 17 23 21 14 13 12 8 8 6 2 3 5 4 4 5 6 6 4 4 4 2 2 1 1 2 2 1 2 2 2 1 1 2 2 1 3 1 1 3 3 2 3 1 0 2 1 1 2 3 4 7 7 7 8 6 6 6 3 7 8 9 10 6 4 3 2 6 9 7 9 8 8 8 13 20 21 21 27 37 40 41 42 43 42 41 45 48
6 6 11 18 22 25 20 13 11 7 4 4 4 3 3 2 2 5 5 4 5 4 4 3 2 2 3 4 3 3 2 1 1 2 2 3 3 1 1 2 2 2 3 3 1 1 2 1 2 5 4 6 6 9 9 5 7 9 8 9 8 7 8 5 3 3 5 7 7 8 12 14 12 10 13 16 17 18 24 31 35 39 42 43 42 44 47 47
7 3 2 6 12 17 17 12 11 8 3 3 3 1 2 2 2 4 4 3 5 4 3 4 4 2 2 4 4 3 4 3 2 2 1 3 4 3 2 2 2 2 3 2 2 2 3 2 3 5 7 9 8 11 13 9 6 6 8 9 8 8 8 8 6 5 8 7 6 11 18 18 13 11 14 17 18 18 21 26 31 36 39 40 41 44 46 44
7 4 5 5 3 4 7 8 11 12 7 4 3 1 2 4 3 2 2 3 4 4 2 2 5 4 1 2 2 2 6 6 4 3 1 2 4 4 4 2 3 4 3 2 2 3 3 2 3 3 6 11 10 12 13 8 2 4 7 8 9 9 8 8 7 8 8 8 10 18 23 20 13 12 14 19 21 22 24 29 34 36 37 39 42 45 47 43
13 10 8 9 7 5 5 5 10 15 11 6 4 3 3 4 3 0 2 3 3 5 5 2 4 6 2 2 2 1 2 2 4 5 1 2 4 3 3 2 2 4 5 2 1 3 2 3 3 1 5 11 11 9 7 3 1 5 7 7 7 7 7 8 8 10 12 12 16 21 24 19 11 11 17 25 31 32 32 35 38 38 39 42 45 48 47 41
12 11 12 17 14 9 7 4 6 10 7 5 4 2 1 2 1 2 1 1 1 4 5 2 5 7 2 2 3 2 4 5 5 6 2 1 4 1 0 1 1 4 7 3 1 3 3 2 1 3 4 11 9 4 4 1 4 5 7 9 10 11 12 11 11 12 13 15 18 20 20 14 9 15 24 31 36 35 34 37 39 39 42 45 46 47 43 39
18 18 19 19 10 8 7 5 4 6 4 5 3 1 1 1 2 2 0 1 1 1 2 2 5 5 2 1 3 5 8 6 8 11 8 5 5 3 1 0 0 4 6 3 2 3 3 3 3 5 5 10 9 9 12 5 7 7 8 12 13 14 13 12 12 12 13 17 19 17 11 8 11 19 25 29 33 33 32 35 38 40 45 48 46 43 40 41
20 18 15 14 8 6 6 4 4 5 2 2 1 2 1 2 4 3 1 1 1 1 3 3 3 3 2 3 4 8 12 12 13 16 15 14 13 11 10 9 5 3 2 1 2 1 2 1 3 3 4 9 11 14 13 6 2 2 4 8 11 13 14 15 13 12 15 16 14 9 7 10 17 21 22 23 26 29 33 37 38 41 48 50 44 39 41 48
Wind_Direction
164 156 153 149 139 125 118 113 111 107 105 117 130 148 253 305 323 339 348 349 354 4 13 26 54 88 90 66 54 45 35 24 14 14 21 23 10 345 332 320 317 313 306 306 298 288 287 284 266 262 281 288 285 274 257 235 153 122 105 105 253 209 204 198 191 206 193 270 278 294 232 208 254 249 234 259 252 249 254 249 243 242 243 245 251 256 262 262
158 152 151 145 137 130 125 123 118 111 109 119 131 190 282 306 323 345 354 355 4 21 42 66 76 88 85 51 19 8 13 17 16 22 22 16 5 352 344 334 338 337 329 328 326 321 320 316 286 280 293 300 321 296 207 179 141 122 117 146 241 205 215 211 198 213 213 276 280 296 269 219 238 250 239 254 253 252 256 256 249 249 250 249 251 250 253 254
153 151 151 146 141 135 131 129 121 114 112 113 117 286 301 313 329 1 5 0 21 58 81 86 86 84 56 10 342 330 328 352 13 19 17 8 359 355 351 345 350 349 343 343 343 343 346 351 340 327 324 333 349 299 180 156 204 172 134 240 247 218 242 249 237 243 252 280 295 301 281 230 242 248 242 250 275 277 249 254 246 244 254 257 256 248 247 249
152 151 151 146 141 135 134 130 120 114 104 92 62 354 329 333 353 23 20 18 58 101 98 85 74 53 17 357 354 342 321 324 12 13 8 359 351 348 346 342 348 348 342 338 339 338 344 356 344 340 347 342 347 245 186 292 262 187 159 210 237 195 262 273 256 263 276 289 285 289 298 264 260 249 241 258 300 284 250 257 253 250 262 271 269 257 247 246
151 150 148 142 138 134 132 130 121 112 93 76 50 20 1 359 17 57 46 62 108 121 95 55 40 32 14 6 7 1 357 351 2 5 360 351 346 344 342 331 334 340 338 331 325 319 330 347 338 342 355 324 350 73 207 237 139 224 214 232 240 168 262 293 287 281 287 297 289 284 287 277 277 251 244 243 241 258 268 273 271 270 275 280 281 271 256 248
149 145 141 136 133 130 127 125 116 104 85 68 47 25 11 6 44 130 112 119 130 130 58 21 22 15 2 355 355 3 23 55 350 3 360 351 348 351 355 344 337 338 336 331 322 306 316 334 332 345 4 330 316 195 261 328 175 256 273 290 284 230 255 297 311 298 292 292 283 274 273 273 279 270 255 240 239 262 281 284 279 283 284 283 281 274 263 254
142 137 133 131 128 128 123 118 108 96 78 61 39 18 5 356 76 147 120 129 146 129 22 12 7 358 347 344 346 4 31 37 357 7 4 360 0 3 12 10 357 340 333 333 330 317 320 331 334 0 27 354 290 209 355 329 284 202 276 327 328 277 265 290 298 290 288 282 274 274 280 273 256 273 280 259 261 272 288 290 285 287 286 282 277 271 266 262
135 131 129 128 126 126 121 115 103 88 71 55 34 18 3 353 57 134 89 102 118 84 24 7 3 357 348 341 344 18 28 23 12 9 4 13 15 12 13 7 358 338 336 337 337 332 335 351 0 3 14 346 303 257 0 335 320 154 259 310 322 298 285 296 299 289 284 282 283 279 268 264 262 277 282 270 276 285 292 295 297 298 294 287 280 275 270 265
132 129 128 125 126 126 121 111 95 82 67 53 44 36 27 26 80 112 96 108 102 61 8 3 6 4 3 352 3 38 25 23 18 6 4 17 20 17 14 6 3 352 350 349 346 342 342 5 14 3 359 326 13 4 7 0 335 220 271 306 304 302 303 307 303 291 285 285 288 275 266 270 273 292 278 273 282 295 297 298 305 308 305 300 293 288 279 270
131 128 126 126 129 127 117 104 88 75 61 51 50 47 47 63 100 112 109 113 83 25 1 2 359 8 20 24 64 58 23 26 16 1 1 3 7 15 21 21 24 25 25 15 4 4 2 12 7 347 337 341 28 347 354 25 315 302 309 305 294 300 310 325 314 297 290 287 285 268 272 273 271 312 270 280 293 303 305 307 308 307 307 306 303 300 292 280
128 125 127 130 130 122 109 96 81 68 59 52 54 55 64 86 108 116 115 102 35 20 16 8 1 15 34 40 61 61 22 26 13 3 357 350 352 1 23 31 30 41 43 34 26 25 23 12 355 341 321 334 328 320 348 6 313 312 331 311 302 320 330 1 342 320 310 289 293 279 274 279 272 173 254 286 307 309 311 311 308 307 306 307 306 305 300 290
126 127 129 130 126 117 104 90 75 64 59 60 67 75 82 94 106 112 111 81 39 26 16 15 12 20 33 35 47 45 29 31 17 11 1 343 340 341 9 21 24 41 43 42 39 32 30 20 11 22 35 335 316 4 359 347 323 306 5 332 315 352 5 4 357 345 1 312 320 331 297 302 185 212 269 299 319 316 315 312 311 314 314 317 317 315 311 304
127 129 131 131 124 114 101 83 71 63 64 79 90 93 92 94 98 101 109 85 31 6 357 2 6 20 35 33 40 37 33 28 16 14 7 352 340 327 348 2 21 41 37 40 39 31 27 21 29 50 41 16 324 6 321 324 329 294 22 43 332 0 340 348 2 346 354 327 323 8 316 304 277 266 294 326 335 325 319 317 321 326 328 332 334 334 333 330
131 134 134 131 123 111 95 79 71 66 73 92 98 96 91 89 99 106 97 56 28 10 359 359 359 23 55 53 44 33 26 19 11 9 8 16 30 357 344 344 3 32 27 30 26 22 19 15 32 46 31 15 340 288 324 344 0 317 359 41 28 9 296 330 354 346 360 344 328 28 245 286 294 300 320 339 339 333 323 325 338 345 354 6 11 12 10 12
135 137 134 128 118 103 88 76 70 72 83 91 95 91 78 89 109 111 83 55 33 14 2 6 12 30 51 50 37 21 16 16 11 7 4 14 34 34 26 7 9 15 11 19 13 13 13 15 43 43 17 7 10 34 5 354 5 21 15 341 354 17 298 322 352 29 11 308 324 42 249 283 287 304 324 338 343 346 341 346 9 25 38 44 44 44 41 42
137 135 131 123 109 94 80 71 70 75 79 73 71 65 63 87 106 121 106 58 36 27 23 20 24 41 45 31 16 10 16 17 10 7 2 5 17 23 25 27 31 10 350 17 16 8 13 30 59 46 28 17 23 62 43 13 349 9 38 315 305 329 322 320 348 29 16 323 335 28 248 288 289 306 324 341 353 4 17 22 39 49 56 59 57 55 52 50
139 137 133 122 106 90 74 72 72 70 72 71 69 65 63 68 78 151 151 24 23 30 35 29 22 69 50 25 8 6 15 17 9 7 4 5 14 12 12 27 33 9 7 64 34 27 34 43 64 40 35 38 19 62 57 19 333 329 21 2 290 282 312 314 312 358 12 20 341 346 228 267 280 302 320 343 7 19 40 41 48 58 60 62 61 57 54 50
148 147 141 130 110 87 73 70 71 81 96 95 88 80 74 69 66 72 35 358 0 4 28 26 26 132 36 12 7 3 14 18 12 13 14 13 19 11 14 32 19 3 75 88 37 34 43 37 60 65 27 30 10 45 64 343 284 286 319 322 310 300 277 288 285 340 7 1 326 335 289 282 293 304 319 345 14 21 42 49 53 61 62 61 60 57 55 51
158 158 155 147 122 99 85 79 89 103 104 101 94 84 77 75 73 69 66 64 62 64 28 20 33 104 297 0 11 13 21 24 19 22 28 26 30 25 32 40 31 57 100 80 24 26 36 31 44 39 357 348 345 44 124 257 233 247 277 265 294 307 283 276 269 297 359 343 314 322 301 290 302 305 316 339 358 18 41 54 57 59 61 61 60 57 54 51
166 168 171 164 147 142 115 102 106 106 94 95 93 81 79 78 72 64 62 65 68 71 63 40 42 55 27 10 20 26 28 30 27 28 29 26 40 42 39 41 48 62 73 95 4 14 39 59 36 330 291 298 300 271 240 260 226 243 294 288 283 286 287 291 275 290 356 351 299 312 309 288 293 290 299 331 348 16 32 41 47 53 61 63 62 57 53 49
169 171 171 160 163 159 126 118 110 99 89 86 82 75 69 64 76 74 67 65 64 62 55 47 45 43 36 24 24 25 22 27 29 31 29 28 50 54 32 38 55 48 12 263 172 4 49 66 352 275 257 273 298 303 256 264 134 4 299 292 302 271 275 297 282 293 10 20 279 324 332 301 292 287 297 329 344 354 7 15 23 39 58 65 62 54 49 45
158 160 160 163 168 143 126 122 110 100 92 82 76 74 70 72 88 95 91 77 59 53 48 42 42 37 34 31 27 24 23 22 22 23 25 33 53 58 38 48 61 31 343 8 58 6 45 48 309 288 281 290 350 40 25 308 98 68 343 306 318 304 288 304 296 309 2 41 273 325 337 301 290 283 285 304 310 311 337 346 350 14 47 64 60 48 43 37
141 141 142 148 146 136 130 125 115 105 92 77 67 65 65 64 70 77 86 91 61 45 37 33 33 28 26 24 17 24 33 31 11 9 15 24 43 48 47 54 58 30 3 31 76 55 52 348 313 338 355 357 6 16 26 19 33 55 1 9 318 325 345 315 315 330 333 313 258 302 305 292 306 313 287 280 295 301 318 321 312 349 3 35 49 41 35 30
133 128 130 137 139 138 136 130 123 112 86 62 54 50 51 48 51 68 72 94 74 32 26 26 23 21 19 11 6 22 40 38 16 5 9 16 26 37 43 47 55 42 8 42 84 90 122 284 323 11 29 40 32 1 24 27 358 303 238 350 308 314 310 257 291 322 328 325 288 318 323 305 332 340 299 289 329 314 304 315 307 353 7 26 51 42 34 30
134 132 140 143 144 143 139 135 131 116 60 36 35 28 34 35 33 50 64 86 59 0 10 17 16 16 12 6 10 38 49 38 23 7 6 18 23 30 37 33 45 28 336 37 69 73 149 303 339 15 23 39 60 23 26 35 351 322 258 226 275 302 291 276 300 328 357 350 329 16 11 303 306 323 288 297 341 316 307 317 300 308 7 33 44 41 33 29
141 143 151 151 151 149 142 140 134 102 26 18 12 11 23 22 32 68 78 68 35 340 356 5 8 9 8 5 1 17 47 21 15 9 11 22 25 41 41 14 43 36 266 190 63 74 319 346 38 72 33 32 47 29 344 100 38 345 276 201 253 318 308 303 324 0 20 306 309 55 76 284 313 317 283 301 321 303 309 314 297 305 350 18 35 37 30 27
149 150 157 158 158 153 143 143 150 55 14 8 359 4 15 17 49 103 55 45 18 329 350 356 359 5 9 11 10 50 46 336 353 12 16 24 27 53 66 358 44 30 300 133 44 351 304 352 22 44 32 30 29 357 275 124 60 315 263 31 332 319 300 277 86 85 253 284 322 25 98 254 302 289 283 316 313 306 317 309 300 315 341 3 29 35 29 26
160 159 163 165 165 164 152 135 182 5 359 343 343 353 4 18 67 133 86 72 346 330 353 342 351 8 12 26 32 59 55 350 3 7 14 31 35 52 68 50 135 56 340 110 102 282 272 345 355 15 19 18 1 313 264 138 79 269 268 341 318 294 256 178 128 145 266 10 337 328 24 338 282 280 305 341 332 318 314 299 295 305 328 1 35 34 26 22
172 169 170 178 185 194 210 203 230 343 341 329 336 345 3 30 90 79 77 101 318 336 350 346 352 356 358 23 34 35 33 25 26 352 15 40 38 51 83 44 129 164 5 80 143 253 254 277 294 94 47 354 296 286 230 154 250 285 301 340 352 66 68 101 102 116 39 35 292 284 0 27 293 290 315 353 356 324 305 300 298 306 335 4 24 28 27 24
182 181 182 193 204 215 230 250 284 315 329 331 339 350 36 50 79 66 49 82 323 336 334 359 357 344 356 13 15 10 18 23 6 357 20 37 36 50 89 32 47 106 5 33 83 274 299 252 216 133 78 295 294 301 235 177 271 321 348 341 358 36 37 58 67 89 55 355 263 255 17 69 311 290 282 291 323 336 321 322 328 333 353 7 17 28 33 32
189 189 191 202 211 218 233 256 287 307 321 327 331 338 51 34 64 89 66 274 312 345 346 5 353 352 13 39 354 350 354 352 359 11 16 21 30 36 43 14 12 37 11 5 12 347 356 51 285 287 274 298 327 329 331 194 297 355 17 355 354 353 2 20 357 31 46 312 268 241 244 100 270 272 265 282 335 4 355 341 349 359 12 21 26 31 33 30
190 194 198 205 211 223 246 261 283 305 316 324 325 308 95 35 32 88 298 312 334 357 0 334 330 351 3 19 354 332 332 341 357 27 30 11 35 29 32 39 354 8 11 351 347 349 349 235 306 333 315 342 359 347 344 353 5 14 20 24 21 352 356 2 333 354 354 278 256 204 303 302 240 250 281 332 3 19 19 18 23 28 31 32 31 29 26 23
187 192 200 214 227 248 261 263 279 297 303 308 309 52 84 74 43 266 288 331 2 348 331 273 304 327 334 7 358 324 340 347 343 13 37 51 58 27 20 30 19 27 7 342 353 355 337 305 337 2 4 8 45 33 348 327 356 7 14 42 47 26 3 329 303 328 303 279 265 101 11 297 279 292 353 12 30 37 32 29 31 31 31 27 24 21 18 15
173 176 194 215 239 258 264 268 268 267 277 263 140 65 66 79 164 293 310 286 298 331 331 275 307 326 14 45 340 320 6 337 340 15 10 26 46 18 359 7 16 48 59 22 24 9 355 321 332 10 331 348 40 63 336 254 345 337 200 125 82 100 42 281 260 277 295 297 308 342 71 225 284 16 61 53 50 49 39 31 28 25 22 18 14 12 9 6
151 154 165 178 230 252 270 288 270 282 273 162 98 61 74 120 236 133 276 263 289 318 299 319 2 10 3 333 319 0 60 316 349 36 23 30 48 12 2 350 356 27 64 43 337 3 22 279 267 288 287 309 37 348 135 92 1 292 182 89 21 193 172 226 226 215 264 303 305 300 237 224 252 37 59 53 50 46 36 29 27 22 16 12 8 5 2 358
128 133 119 115 178 221 356 319 273 249 208 131 86 51 106 171 223 169 206 270 286 311 313 340 28 40 343 315 334 4 26 317 352 29 26 40 64 11 9 307 344 21 70 93 302 1 24 283 287 339 320 186 90 295 311 54 324 313 44 334 273 183 146 160 275 283 57 290 281 291 277 289 311 2 24 27 28 27 22 19 18 13 9 8 4 359 355 352
115 106 82 71 51 40 30 24 73 178 136 94 81 72 183 188 180 187 236 313 242 325 59 30 17 25 335 314 327 337 347 346 2 25 17 13 34 15 9 327 18 34 54 152 200 251 150 289 304 354 321 295 4 331 328 52 119 60 355 263 249 82 101 110 283 335 11 269 271 304 289 300 313 312 6 17 12 9 9 6 4 1 1 0 357 354 351 349
101 84 65 54 45 47 81 67 81 137 105 76 75 127 156 205 194 214 287 17 266 22 68 70 8 32 10 348 325 325 350 359 359 14 12 5 7 71 46 334 9 32 10 167 179 286 130 298 299 303 274 294 333 37 3 347 81 66 298 242 76 13 309 10 326 305 316 281 282 298 288 289 267 295 357 12 4 360 357 355 355 354 355 352 350 350 348 346
89 73 49 35 43 55 66 81 106 116 90 71 90 146 121 224 116 353 348 356 341 54 57 38 10 26 43 62 331 327 359 9 350 7 35 28 351 74 98 311 294 2 2 106 146 288 109 356 291 282 290 304 347 35 347 317 328 14 11 334 24 181 212 256 273 231 268 273 280 305 303 294 204 315 356 359 355 356 349 348 349 346 347 346 345 345 343 341
78 69 37 26 57 60 52 106 103 85 76 89 161 131 62 105 58 23 15 8 19 58 41 27 49 17 350 14 347 307 9 26 344 353 19 31 333 346 83 120 281 336 349 67 105 321 12 80 267 287 322 346 349 331 278 280 303 346 0 333 320 289 247 282 266 160 179 264 273 298 293 266 205 349 21 6 358 356 347 342 341 339 340 340 339 339 337 335
84 77 38 40 66 71 86 96 78 62 65 101 97 79 29 71 63 28 26 32 48 55 75 127 99 80 269 1 4 229 311 343 348 316 302 326 351 339 16 71 340 332 350 36 44 10 355 117 241 298 341 348 286 258 201 201 202 189 264 271 258 274 318 311 290 294 155 234 247 282 282 260 204 217 158 22 1 353 348 343 336 334 334 333 333 332 330 330
78 74 23 39 48 93 111 80 39 23 86 70 49 62 61 64 53 34 28 33 45 45 66 106 106 129 162 217 263 236 300 317 294 348 255 243 232 226 313 13 0 345 32 32 347 354 3 106 116 282 276 273 280 287 145 203 173 149 195 207 179 230 68 259 275 297 309 276 264 293 280 257 220 221 190 19 354 345 344 340 334 331 329 330 331 330 330 331
68 58 23 29 45 95 100 73 11 23 67 72 83 68 58 67 55 36 29 29 29 23 38 64 133 62 135 218 241 256 323 242 228 276 274 240 259 248 248 12 358 350 54 37 336 355 9 85 10 295 278 282 291 320 76 151 114 90 303 19 49 359 356 269 255 303 302 286 314 324 280 266 222 217 239 355 351 346 344 341 339 334 333 334 333 331 332 333
71 58 45 39 72 110 93 95 99 68 60 95 82 51 48 69 52 29 25 21 13 39 65 32 337 18 332 197 94 275 313 1 233 277 353 213 252 291 60 20 1 17 57 44 358 0 337 96 25 346 337 331 329 346 343 313 341 321 318 35 27 1 351 311 290 24 312 289 330 316 280 287 276 255 342 355 352 346 341 340 338 335 334 332 329 329 331 332
71 59 51 55 82 98 90 105 123 117 126 95 64 22 31 58 44 39 56 45 35 64 71 354 308 348 344 28 27 328 341 25 272 320 11 256 259 302 77 0 358 50 53 42 70 1 293 207 96 76 351 326 325 321 312 314 322 314 13 39 21 10 9 351 330 2 314 313 329 305 277 297 318 334 355 356 346 337 335 334 332 330 328 326 326 328 330 328
75 64 48 53 71 80 80 89 101 105 132 108 67 21 33 54 30 36 53 57 39 41 54 29 325 313 11 39 26 325 313 9 333 341 345 271 275 325 18 353 15 56 40 34 36 56 94 216 208 157 191 263 266 272 285 309 308 309 354 18 10 12 21 28 30 344 309 304 299 291 296 303 312 334 352 346 335 331 330 327 326 325 325 324 325 326 325 322
75 57 34 53 62 65 65 65 74 88 125 122 102 31 20 3 319 10 36 51 32 28 64 47 29 40 19 21 31 315 301 338 357 329 304 270 272 302 342 15 56 41 32 35 9 73 84 323 259 182 213 248 255 270 287 307 307 316 2 9 0 2 13 31 27 325 308 298 287 305 307 301 305 332 342 336 330 327 322 318 320 321 321 321 321 321 321 319
87 90 81 90 82 50 52 54 69 78 75 79 105 111 32 22 9 21 6 0 24 28 39 26 17 31 292 309 35 339 324 348 341 301 333 338 316 336 359 37 81 38 19 11 1 92 107 270 248 183 244 262 267 274 281 294 323 51 36 8 354 357 4 9 349 319 321 309 296 303 299 293 306 332 335 330 324 317 313 315 319 319 318 320 321 321 321 319
107 105 78 85 98 101 102 86 76 74 57 42 68 62 59 59 44 276 289 334 4 4 23 37 321 330 299 226 109 36 317 345 319 301 307 355 332 346 351 343 70 32 17 14 6 67 96 253 238 179 280 283 279 271 268 259 147 72 38 6 356 354 348 344 328 327 333 313 296 296 292 290 315 336 326 321 318 315 316 320 322 321 320 321 321 320 318 316
116 115 107 103 92 74 78 67 68 75 46 26 61 45 71 99 44 265 256 51 16 334 16 44 296 308 300 184 158 214 235 199 230 259 212 30 330 282 228 272 252 347 4 30 17 27 37 285 270 82 323 302 294 285 304 306 133 95 34 13 7 354 345 342 335 333 330 313 303 299 292 294 323 324 316 316 319 321 322 323 322 321 320 320 319 317 315 317
112 117 117 110 83 25 41 45 55 84 34 8 76 175 252 158 210 209 142 62 125 279 332 303 291 308 352 214 212 250 267 241 238 255 253 260 266 235 205 237 304 349 0 11 336 12 31 311 337 45 349 309 312 330 331 348 114 99 34 17 7 354 344 334 327 325 321 315 312 307 299 304 319 317 316 319 324 325 321 319 319 318 319 318 316 314 316 321
112 117 116 107 84 11 27 37 36 71 66 331 122 176 179 184 203 165 98 315 275 297 298 285 289 316 339 321 301 301 306 301 285 280 276 263 253 249 256 265 274 294 312 355 340 6 70 17 335 11 337 303 314 328 326 333 70 39 19 24 6 348 336 323 317 320 319 315 315 313 307 314 320 324 325 326 327 323 317 317 318 317 317 315 312 315 320 323